Route Details
Issaquah
Time Location Temp F Dew point F Wind Dir Wind Speed kts
11:29 PM 47.6205 -122.5136 49 35 109 2
11:28 PM 47.6206 -122.5136 49 35 215 3
11:24 PM 47.6205 -122.5136 50 36 199 2
11:23 PM 47.6205 -122.5136 50 36 242 3
11:22 PM 47.6205 -122.5136 50 36 280 2
11:21 PM 47.6205 -122.5136 50 36 259 0
11:20 PM 47.6205 -122.5135 50 36 245 0
11:19 PM 47.6205 -122.5135 50 36 270 1
11:18 PM 47.6205 -122.5135 50 35 303 1
11:17 PM 47.6205 -122.5135 50 35 244 1
11:16 PM 47.6205 -122.5136 50 35 245 0
11:15 PM 47.6205 -122.5136 50 35 262 1
11:14 PM 47.6205 -122.5136 50 35 262 1
11:13 PM 47.6205 -122.5136 50 35 277 4
11:12 PM 47.6205 -122.5136 50 35 298 3
11:11 PM 47.6205 -122.5136 50 35 260 5
11:10 PM 47.6205 -122.5136 50 35 228 7
11:09 PM 47.6205 -122.5136 50 34 227 5
11:08 PM 47.6205 -122.5136 50 33 184 1
11:07 PM 47.6205 -122.5136 50 33 103 0
11:06 PM 47.6205 -122.5136 50 32 270 0
11:05 PM 47.6205 -122.5136 50 32 71 0
11:04 PM 47.6205 -122.5136 50 32 166 0
11:03 PM 47.6205 -122.5136 50 33 75 4
11:02 PM 47.6205 -122.5136 51 33 172 4
11:01 PM 47.6205 -122.5136 50 33 197 3
11:00 PM 47.6205 -122.5136 50 33 189 1
10:59 PM 47.6205 -122.5136 50 33 232 0
10:58 PM 47.6205 -122.5135 50 33 351 0
10:57 PM 47.6205 -122.5136 50 33 163 1
10:56 PM 47.6205 -122.5136 51 33 128 1
10:55 PM 47.6205 -122.5136 51 33 132 0
10:54 PM 47.6205 -122.5136 51 33 83 1
10:53 PM 47.6205 -122.5136 51 33 113 3
10:52 PM 47.6205 -122.5136 51 34 218 3
10:51 PM 47.6205 -122.5136 51 34 313 1
10:50 PM 47.6205 -122.5136 51 34 250 1
10:49 PM 47.6205 -122.5136 51 34 252 2
10:48 PM 47.6205 -122.5136 51 34 237 2
10:47 PM 47.6205 -122.5136 51 34 189 2
10:46 PM 47.6205 -122.5136 51 34 232 2
10:45 PM 47.6205 -122.5136 51 33 205 1
10:44 PM 47.6205 -122.5136 51 33 222 3
10:43 PM 47.6205 -122.5136 51 32 218 3
10:42 PM 47.6205 -122.5136 51 32 217 2
10:29 PM 47.6205 -122.5136 51 32 180 3
10:28 PM 47.6205 -122.5136 51 32 138 1
10:27 PM 47.6205 -122.5136 51 32 154 2
10:23 PM 47.6205 -122.5136 50 31 132 7
10:21 PM 47.6205 -122.5136 50 30 148 6
10:20 PM 47.6205 -122.5136 50 30 128 4
10:19 PM 47.6205 -122.5136 50 30 116 4
10:18 PM 47.6205 -122.5136 50 30 133 3
10:17 PM 47.6205 -122.5136 50 31 104 3
10:16 PM 47.6205 -122.5136 50 30 124 2
10:15 PM 47.6205 -122.5136 50 31 136 2
10:14 PM 47.6205 -122.5135 50 31 174 1
10:13 PM 47.6205 -122.5135 50 31 196 4
10:12 PM 47.6205 -122.5136 50 31 217 4
10:11 PM 47.6205 -122.5136 50 30 229 5
10:10 PM 47.6205 -122.5135 50 31 200 5
9:39 PM 47.6205 -122.5136 49 31 262 8
9:38 PM 47.6205 -122.5136 49 31 254 7
9:31 PM 47.6205 -122.5135 48 32 266 5
9:30 PM 47.6205 -122.5136 48 32 264 7
9:29 PM 47.6205 -122.5136 48 32 268 8
9:28 PM 47.6205 -122.5136 48 32 251 7
9:27 PM 47.6205 -122.5136 48 32 259 6
9:26 PM 47.6205 -122.5136 48 33 208 5
9:25 PM 47.6205 -122.5136 48 33 232 8
9:24 PM 47.6205 -122.5136 48 34 255 6
9:23 PM 47.6205 -122.5136 48 34 249 6
9:22 PM 47.6205 -122.5136 48 34 245 4
9:21 PM 47.6205 -122.5136 48 34 298 5
9:20 PM 47.6205 -122.5135 48 34 241 5
9:19 PM 47.6205 -122.5136 48 34 237 5
9:18 PM 47.6205 -122.5136 48 34 242 5
9:17 PM 47.6205 -122.5136 48 34 242 5
9:16 PM 47.6205 -122.5136 48 34 237 5
9:15 PM 47.6205 -122.5136 48 34 258 4
9:14 PM 47.6205 -122.5136 48 34 236 4
9:13 PM 47.6205 -122.5136 48 34 256 5
9:12 PM 47.6205 -122.5136 48 34 260 4
9:11 PM 47.6205 -122.5136 48 34 251 5
9:10 PM 47.6205 -122.5136 48 34 257 5
9:09 PM 47.6205 -122.5136 48 34 247 5
9:08 PM 47.6205 -122.5136 48 34 248 5
9:07 PM 47.6205 -122.5135 48 34 231 4
9:06 PM 47.6205 -122.5135 48 34 219 4
9:05 PM 47.6205 -122.5135 48 34 227 5
9:04 PM 47.6205 -122.5136 48 34 220 7
9:03 PM 47.6205 -122.5136 48 34 232 7
9:02 PM 47.6205 -122.5136 48 34 230 6
9:01 PM 47.6205 -122.5136 48 34 240 9
9:00 PM 47.6205 -122.5136 48 35 240 9
8:59 PM 47.6205 -122.5135 48 35 217 9
8:58 PM 47.6205 -122.5135 48 35 240 10
8:57 PM 47.6205 -122.5135 48 35 226 11
8:56 PM 47.6205 -122.5135 49 35 248 9
8:55 PM 47.6205 -122.5136 49 35 237 10
8:54 PM 47.6205 -122.5136 49 35 234 10
8:53 PM 47.6205 -122.5136 49 35 247 9
8:52 PM 47.6205 -122.5135 49 35 238 10
8:51 PM 47.6205 -122.5135 49 34 249 9
8:50 PM 47.6205 -122.5135 49 34 246 9
8:49 PM 47.6205 -122.5135 50 34 251 10
8:48 PM 47.6205 -122.5135 50 34 251 8
8:47 PM 47.6205 -122.5136 50 33 200 6
8:46 PM 47.6205 -122.5135 50 33 248 4
8:45 PM 47.6205 -122.5135 50 33 259 7
8:44 PM 47.6205 -122.5135 50 32 249 7
8:43 PM 47.6205 -122.5135 50 32 239 6
8:40 PM 47.6205 -122.5135 50 32 245 4
8:39 PM 47.6205 -122.5136 50 32 242 3
8:38 PM 47.6205 -122.5136 50 31 221 4
8:37 PM 47.6205 -122.5136 50 32 154 2
8:36 PM 47.6205 -122.5136 50 32 163 2
8:35 PM 47.6205 -122.5136 50 31 241 3
8:34 PM 47.6205 -122.5136 49 32 189 3
8:33 PM 47.6205 -122.5136 49 31 137 4
8:32 PM 47.6205 -122.5136 49 31 177 3
8:31 PM 47.6205 -122.5136 49 32 173 3
8:30 PM 47.6205 -122.5136 49 32 124 3